Location: Unspecified
(49.2170°N, 0.0000°E)
Time: 05:24:20
(UTC+00:00)

Vanguard 1 - Pass Details

Date: 01 February 2021
Orbit: 649 x 3834 km, 34.2° (Epoch: 05 March)

Event Time Altitude Azimuth Distance (km) Brightness Sun altitude
Rises 17:13:13 0° 278° (W) 7,336 15.7 -3.3°
Reaches altitude 10° 17:18:52 10° 268° (W) 6,615 15.7 -4.1°
Maximum altitude 17:36:04 29° 219° (SW) 5,438 14.6 -6.8°
Drops below altitude 10° 17:52:42 10° 169° (S) 6,320 14.2 -9.4°
Sets 17:58:03 0° 159° (SSE) 6,966 14.3 -10.2°
